"Pseudo-MPEC" for LA0Cr6m

Created 2026 Aug 26 0:35:07 UT using Find_Orb

Click here for an explanation of pseudo-MPECs

 
 Astrometry: 
     LA0Cr6m* C2026 08 14.53845120 48 36.214-21 19 13.40   ~8OFo 18.3 GVNEOCPP07
     LA0Cr6m  C2026 08 14.54054220 49 19.390-21 19 21.29   ~8OFo 17.9 GVNEOCPP07
     LA0Cr6m  C2026 08 14.60751321 13 01.685-21 15 37.94   ~8OFo 18.4 GVNEOCPP07
     LA0Cr6m  C2026 08 14.60893421 13 32.657-21 15 22.36   ~8OFo 18.4 GVNEOCPP07
     LA0Cr6m  C2026 08 14.72093921 55 21.355-20 29 35.99   ~8OFo 18.1 GVNEOCPP07
     LA0Cr6m  C2026 08 14.84800822 43 31.596-18 38 02.80   ~8OFo 18.4 GVNEOCPP07

Station data:
(P07) Space Surveillance Telescope, HEH Station  (S21.895685 E114.089870)
   Australia/WA.  Observers M. Blythe, R. Brungard, P. Festler, T. McVey, J.
   Paige, G. Spitz, L. Banks. Measurers M. Cornell, M. Kotson, R. Rios, J.
   Ruprecht, J. Vaillancourt, J. Varey, H. Viggh, D. Woods. 3.5-m f/1.0
   reflector + CCD.

Orbital elements:  LA0Cr6m
   Perigee 2026 Aug 14.769184 +/- 0.000192 TT = 18:27:37.4 (JD 2461267.269184)
Epoch 2026 Aug 15.0 TT = JDT 2461267.5                           AutoNEOCP
q343823.2589 +/- 326                (J2000 equator)
H   30.96 G 0.15                    Peri.  290.698596 +/- 0.017
                                    Node    41.636234 +/- 0.0012
e  36.30241754 +/- 0.103            Incl.   21.411866 +/- 0.00008
From 6 observations 2026 Aug. 14 (7.4 hr); mean residual 0".14
Residuals in arcseconds: 
260814 P07  .09-  .03+    260814 P07  .08-  .06-    260814 P07  .22-  .09-    
260814 P07  .02-  .07-    260814 P07  .33+  .16+    260814 P07  .06+  .03+    

Ephemerides (geocentric):
Date (UTC) HH   RA             Dec           delta  r     elong  mag " sig PA
---- --------  ------------   ------------  ------ ------ -----  --- --------
2026 08 26 01  03 57 25.426   +06 51 28.93  .04169 1.0142  93.7 27.0 10.8  74
2026 08 26 02  03 57 28.059   +06 51 44.11  .04184 1.0142  93.7 27.0 10.9  74
2026 08 26 03  03 57 30.672   +06 51 59.19  .04199 1.0142  93.8 27.0 10.9  74
2026 08 26 04  03 57 33.266   +06 52 14.15  .04215 1.0143  93.8 27.0 10.9  74
2026 08 26 05  03 57 35.840   +06 52 29.01  .04230 1.0143  93.8 27.1 10.9  74
2026 08 26 06  03 57 38.394   +06 52 43.75  .04245 1.0143  93.8 27.1 10.9  74
2026 08 26 07  03 57 40.930   +06 52 58.39  .04260 1.0143  93.9 27.1 10.9  74
2026 08 26 08  03 57 43.447   +06 53 12.93  .04275 1.0144  93.9 27.1 10.9  74
2026 08 26 09  03 57 45.945   +06 53 27.35  .04290 1.0144  93.9 27.1 10.9  74
2026 08 26 10  03 57 48.424   +06 53 41.68  .04306 1.0144  94.0 27.1 10.9  74
2026 08 26 11  03 57 50.885   +06 53 55.90  .04321 1.0145  94.0 27.1 10.9  74
2026 08 26 12  03 57 53.328   +06 54 10.02  .04336 1.0145  94.0 27.1 10.9  74
2026 08 26 13  03 57 55.753   +06 54 24.04  .04351 1.0145  94.0 27.1 10.9  74
2026 08 26 14  03 57 58.160   +06 54 37.96  .04366 1.0145  94.1 27.1 10.9  74
2026 08 26 15  03 58 00.550   +06 54 51.78  .04381 1.0146  94.1 27.1 10.9  74
2026 08 26 16  03 58 02.921   +06 55 05.51  .04396 1.0146  94.1 27.1 10.9  74
2026 08 26 17  03 58 05.276   +06 55 19.13  .04411 1.0146  94.2 27.1 10.9  74
2026 08 26 18  03 58 07.614   +06 55 32.67  .04427 1.0147  94.2 27.1 10.9  74
2026 08 26 19  03 58 09.934   +06 55 46.10  .04442 1.0147  94.2 27.1 11.0  74
2026 08 26 20  03 58 12.238   +06 55 59.44  .04457 1.0147  94.2 27.1 11.0  74
2026 08 26 21  03 58 14.525   +06 56 12.69  .04472 1.0148  94.3 27.2 11.0  74
2026 08 26 22  03 58 16.795   +06 56 25.85  .04487 1.0148  94.3 27.2 11.0  74
2026 08 26 23  03 58 19.049   +06 56 38.91  .04502 1.0148  94.3 27.2 11.0  74
2026 08 27 00  03 58 21.287   +06 56 51.89  .04517 1.0149  94.4 27.2 11.0  74
2026 08 27 01  03 58 23.509   +06 57 04.77  .04532 1.0149  94.4 27.2 11.0  74
2026 08 27 02  03 58 25.715   +06 57 17.57  .04548 1.0149  94.4 27.2 11.0  74
2026 08 27 03  03 58 27.905   +06 57 30.28  .04563 1.0150  94.4 27.2 11.0  74
2026 08 27 04  03 58 30.080   +06 57 42.90  .04578 1.0150  94.5 27.2 11.0  74
2026 08 27 05  03 58 32.239   +06 57 55.43  .04593 1.0150  94.5 27.2 11.0  74
2026 08 27 06  03 58 34.382   +06 58 07.88  .04608 1.0151  94.5 27.2 11.0  74
2026 08 27 07  03 58 36.511   +06 58 20.25  .04623 1.0151  94.6 27.2 11.0  74
2026 08 27 08  03 58 38.624   +06 58 32.53  .04638 1.0151  94.6 27.2 11.0  74
2026 08 27 09  03 58 40.723   +06 58 44.72  .04653 1.0152  94.6 27.2 11.0  74
2026 08 27 10  03 58 42.806   +06 58 56.84  .04668 1.0152  94.7 27.2 11.0  74
2026 08 27 11  03 58 44.875   +06 59 08.87  .04684 1.0152  94.7 27.2 11.1  74
2026 08 27 12  03 58 46.929   +06 59 20.82  .04699 1.0153  94.7 27.2 11.1  74
2026 08 27 13  03 58 48.969   +06 59 32.69  .04714 1.0153  94.7 27.2 11.1  74
2026 08 27 14  03 58 50.995   +06 59 44.48  .04729 1.0153  94.8 27.3 11.1  74
2026 08 27 15  03 58 53.006   +06 59 56.20  .04744 1.0154  94.8 27.3 11.1  74
2026 08 27 16  03 58 55.003   +07 00 07.83  .04759 1.0154  94.8 27.3 11.1  74
2026 08 27 17  03 58 56.986   +07 00 19.39  .04774 1.0154  94.9 27.3 11.1  74
2026 08 27 18  03 58 58.956   +07 00 30.87  .04789 1.0155  94.9 27.3 11.1  74
2026 08 27 19  03 59 00.912   +07 00 42.27  .04804 1.0155  94.9 27.3 11.1  74
2026 08 27 20  03 59 02.854   +07 00 53.60  .04819 1.0155  95.0 27.3 11.1  74
2026 08 27 21  03 59 04.782   +07 01 04.85  .04834 1.0156  95.0 27.3 11.1  74
2026 08 27 22  03 59 06.697   +07 01 16.03  .04849 1.0156  95.0 27.3 11.1  74
2026 08 27 23  03 59 08.599   +07 01 27.14  .04864 1.0157  95.1 27.3 11.1  74
2026 08 28 00  03 59 10.488   +07 01 38.17  .04880 1.0157  95.1 27.3 11.1  74